Location: Newark
(21.1200°N, 73.4000°E)
Time: 04:59:49
(UTC+00:00)

Explorer 11/Cluster Stage 4 - Pass Details

Date: 23 January 2020
Orbit: 467 x 1259 km, 28.8° (Epoch: 19 February)

Event Time Altitude Azimuth Distance (km) Brightness Sun altitude
Rises 16:05:31 0° 284° (WNW) 3,319 10.5 -45.0°
Enters shadow 16:08:00 - 277° (W) 2,401 9.6 -45.5°
Reaches altitude 10° 16:08:27 10° 275° (W) 2,239 - -45.6°
Maximum altitude 16:13:08 35° 211° (SSW) 1,030 - -46.7°
Drops below altitude 10° 16:17:00 10° 145° (SE) 1,840 - -47.6°
Sets 16:19:13 0° 135° (SE) 2,647 - -48.1°
